TimeCDT,TemperatureF,Dew PointF,Humidity,Sea Level PressureIn,VisibilityMPH,Wind Direction,Wind SpeedMPH,Gust SpeedMPH,PrecipitationIn,Events,Conditions,WindDirDegrees,DateUTC
12:15 AM,53.8,43.7,69,30.25,10.0,North,27.6,39.1,N/A,,Overcast,350,2013-05-03 05:15:00
12:35 AM,53.4,42.1,65,30.25,10.0,NNW,33.4,40.3,N/A,,Overcast,340,2013-05-03 05:35:00
12:55 AM,53.2,41.9,65,30.24,10.0,NNW,32.2,38.0,N/A,,Overcast,340,2013-05-03 05:55:00
1:15 AM,53.6,41.2,63,30.25,10.0,NNW,31.1,38.0,N/A,,Overcast,340,2013-05-03 06:15:00
1:35 AM,53.6,40.6,62,30.24,10.0,NNW,34.5,43.7,N/A,,Overcast,340,2013-05-03 06:35:00
1:55 AM,53.6,40.3,61,30.24,10.0,NNW,25.3,39.1,N/A,,Overcast,340,2013-05-03 06:55:00
2:15 AM,53.8,40.1,60,30.24,10.0,NNW,31.1,39.1,N/A,,Overcast,340,2013-05-03 07:15:00
2:35 AM,54.0,39.6,58,30.23,10.0,NNW,26.5,32.2,N/A,,Overcast,340,2013-05-03 07:35:00
2:55 AM,54.0,39.6,58,30.23,10.0,NNW,29.9,34.5,N/A,,Overcast,340,2013-05-03 07:55:00
3:15 AM,54.1,38.7,56,30.23,10.0,NNW,25.3,31.1,N/A,,Overcast,330,2013-05-03 08:15:00
3:35 AM,54.5,38.1,54,30.22,10.0,NNW,29.9,-,N/A,,Overcast,340,2013-05-03 08:35:00
3:55 AM,54.5,38.3,54,30.22,10.0,NNW,23.0,28.8,N/A,,Overcast,340,2013-05-03 08:55:00
4:15 AM,54.5,37.4,52,30.22,10.0,NNW,24.2,35.7,N/A,,Overcast,340,2013-05-03 09:15:00
4:35 AM,54.0,36.9,52,30.22,10.0,North,28.8,38.0,N/A,,Overcast,350,2013-05-03 09:35:00
4:55 AM,54.0,36.1,51,30.23,10.0,NNW,31.1,39.1,N/A,,Overcast,340,2013-05-03 09:55:00
5:15 AM,54.0,35.2,49,30.23,10.0,NNW,24.2,33.4,N/A,,Overcast,340,2013-05-03 10:15:00
5:35 AM,53.8,33.6,46,30.24,10.0,NNW,34.5,42.6,N/A,,Overcast,340,2013-05-03 10:35:00
5:55 AM,53.4,34.0,48,30.25,10.0,NNW,28.8,35.7,N/A,,Overcast,340,2013-05-03 10:55:00
6:15 AM,52.3,33.3,48,30.25,10.0,NNW,28.8,35.7,N/A,,Scattered Clouds,340,2013-05-03 11:15:00
6:35 AM,52.0,33.1,49,30.25,10.0,NNW,28.8,34.5,N/A,,Clear,340,2013-05-03 11:35:00
6:55 AM,51.3,33.1,50,30.26,10.0,NNW,26.5,33.4,N/A,,Clear,330,2013-05-03 11:55:00
7:15 AM,51.1,33.1,50,30.26,10.0,NNW,24.2,34.5,N/A,,Clear,340,2013-05-03 12:15:00
7:35 AM,51.3,33.8,51,30.27,10.0,NNW,26.5,32.2,N/A,,Clear,340,2013-05-03 12:35:00
7:55 AM,51.4,33.8,51,30.27,10.0,NNW,27.6,33.4,N/A,,Clear,340,2013-05-03 12:55:00
8:15 AM,51.8,33.6,50,30.28,10.0,NNW,24.2,29.9,N/A,,Clear,340,2013-05-03 13:15:00
8:35 AM,52.2,33.3,49,30.29,10.0,NNW,27.6,38.0,N/A,,Clear,330,2013-05-03 13:35:00
8:55 AM,53.2,32.9,46,30.28,10.0,NNW,25.3,34.5,N/A,,Clear,340,2013-05-03 13:55:00
9:15 AM,54.7,32.5,43,30.29,10.0,NNW,25.3,34.5,N/A,,Clear,340,2013-05-03 14:15:00
9:35 AM,55.4,32.5,42,30.29,10.0,NNW,27.6,34.5,N/A,,Clear,340,2013-05-03 14:35:00
9:55 AM,56.5,31.1,38,30.29,10.0,North,29.9,39.1,N/A,,Clear,350,2013-05-03 14:55:00
10:15 AM,57.4,31.1,37,30.30,10.0,North,27.6,36.8,N/A,,Clear,350,2013-05-03 15:15:00
10:35 AM,58.1,31.8,37,30.30,10.0,North,25.3,36.8,N/A,,Clear,350,2013-05-03 15:35:00
10:55 AM,58.5,32.0,37,30.30,-9999.0,NNW,26.5,34.5,N/A,,Clear,340,2013-05-03 15:55:00
11:15 AM,59.4,32.2,36,30.29,-9999.0,NNW,26.5,32.2,N/A,,Clear,340,2013-05-03 16:15:00
11:35 AM,60.1,32.0,35,30.29,-9999.0,North,21.9,28.8,N/A,,Clear,350,2013-05-03 16:35:00
11:55 AM,61.5,32.0,33,30.29,-9999.0,NNW,19.6,32.2,N/A,,Clear,340,2013-05-03 16:55:00
12:15 PM,62.2,31.8,32,30.27,-9999.0,NNW,20.7,29.9,N/A,,Clear,340,2013-05-03 17:15:00
12:35 PM,62.8,31.8,31,30.27,-9999.0,NNW,21.9,26.5,N/A,,Clear,330,2013-05-03 17:35:00
12:55 PM,64.0,32.7,31,30.25,-9999.0,NNW,23.0,-,N/A,,Clear,330,2013-05-03 17:55:00
1:15 PM,63.9,31.1,29,30.24,-9999.0,NNW,20.7,26.5,N/A,,Clear,340,2013-05-03 18:15:00
1:35 PM,64.6,31.5,29,30.23,-9999.0,NNW,19.6,26.5,N/A,,Clear,330,2013-05-03 18:35:00
1:55 PM,65.5,31.6,28,30.22,-9999.0,NNW,20.7,25.3,N/A,,Clear,330,2013-05-03 18:55:00
2:15 PM,66.4,32.2,28,30.21,-9999.0,NNW,19.6,25.3,N/A,,Clear,340,2013-05-03 19:15:00
2:35 PM,67.1,32.2,27,30.19,-9999.0,NNW,19.6,25.3,N/A,,Clear,330,2013-05-03 19:35:00
2:55 PM,68.2,31.6,26,30.19,-9999.0,North,18.4,27.6,N/A,,Clear,360,2013-05-03 19:55:00
3:15 PM,68.4,30.6,25,30.17,-9999.0,NNW,19.6,25.3,N/A,,Clear,340,2013-05-03 20:15:00
3:35 PM,68.5,31.1,25,30.16,-9999.0,North,19.6,-,N/A,,Clear,350,2013-05-03 20:35:00
3:55 PM,68.5,28.9,23,30.15,-9999.0,NNW,19.6,25.3,N/A,,Clear,340,2013-05-03 20:55:00
4:15 PM,68.7,30.4,24,30.14,-9999.0,North,17.3,23.0,N/A,,Clear,360,2013-05-03 21:15:00
4:35 PM,68.2,30.0,24,30.13,-9999.0,NNW,15.0,20.7,N/A,,Clear,340,2013-05-03 21:35:00
4:55 PM,68.9,30.2,24,30.12,-9999.0,North,17.3,21.9,N/A,,Clear,360,2013-05-03 21:55:00
5:15 PM,68.9,30.9,24,30.11,-9999.0,North,13.8,23.0,N/A,,Clear,350,2013-05-03 22:15:00
5:35 PM,69.1,30.9,24,30.11,10.0,North,17.3,-,N/A,,Clear,10,2013-05-03 22:35:00
5:55 PM,69.1,29.8,23,30.10,10.0,North,13.8,18.4,N/A,,Clear,350,2013-05-03 22:55:00
6:15 PM,68.7,32.2,26,30.10,10.0,North,12.7,16.1,N/A,,Clear,350,2013-05-03 23:15:00
6:35 PM,68.2,31.5,26,30.09,10.0,North,11.5,16.1,N/A,,Clear,10,2013-05-03 23:35:00
6:55 PM,68.0,31.3,26,30.09,10.0,North,10.4,-,N/A,,Clear,350,2013-05-03 23:55:00
7:15 PM,67.5,32.7,28,30.09,10.0,North,9.2,-,N/A,,Clear,360,2013-05-04 00:15:00
7:35 PM,66.6,33.4,29,30.10,10.0,North,6.9,-,N/A,,Clear,350,2013-05-04 00:35:00
7:55 PM,65.5,35.6,33,30.10,10.0,North,6.9,-,N/A,,Clear,360,2013-05-04 00:55:00
8:15 PM,63.5,37.8,39,30.10,10.0,North,5.8,-,N/A,,Clear,360,2013-05-04 01:15:00
8:35 PM,62.6,40.6,45,30.11,10.0,North,3.5,-,N/A,,Clear,360,2013-05-04 01:35:00
8:55 PM,61.7,44.6,53,30.11,10.0,NNE,3.5,-,N/A,,Clear,20,2013-05-04 01:55:00
9:15 PM,61.2,43.9,53,30.11,10.0,NNE,3.5,-,N/A,,Clear,20,2013-05-04 02:15:00
9:35 PM,61.0,44.6,55,30.12,10.0,NNE,3.5,-,N/A,,Clear,20,2013-05-04 02:35:00
9:55 PM,61.0,43.0,52,30.12,10.0,NNE,3.5,-,N/A,,Clear,20,2013-05-04 02:55:00
10:15 PM,59.7,44.6,57,30.12,10.0,NE,4.6,-,N/A,,Clear,40,2013-05-04 03:15:00
10:35 PM,60.6,40.6,48,30.12,10.0,Calm,Calm,-,N/A,,Clear,0,2013-05-04 03:35:00
10:55 PM,60.1,40.3,48,30.12,10.0,NE,3.5,-,N/A,,Clear,50,2013-05-04 03:55:00
11:15 PM,59.9,39.7,47,30.12,10.0,NE,3.5,-,N/A,,Clear,50,2013-05-04 04:15:00
11:35 PM,58.1,39.9,51,30.12,10.0,NE,5.8,-,N/A,,Clear,40,2013-05-04 04:35:00
11:55 PM,58.3,39.7,50,30.11,10.0,NNE,4.6,-,N/A,,Clear,30,2013-05-04 04:55:00